Darstellungsparameter: Aktuell verwendete Einstellungen:
Skalierung der Graphiken ... ?
xyx+y,   Skalierungsfaktor:      Skalierung: Modus: x, Faktor: 1
Darstellungszeitraum ... ?
Vom - - bis: - -   Zeitraum: 29.11.2021 - 29.11.2021
Min/Max/Avg-Anzeige ... ?
Zeige MMA aktuell
Zeige MMA Monat
Zeige MMA alles
Zeige --A aktuell
Zeige --A Monat
Zeige --A alles
Keine MMA-Anzeige
MMA:
Keine MMA-Graphiken
MMA-Basis: 29.11.2021 - 29.11.2021
Quicknavigation für Darstellung... ?
Tage:      1T, 2T, 3T, 5T -1T -2T -3T -5T +1T +2T +3T +5T
Wochen: 1W, 2W, 3W -1W -2W -3W +1W +2W +3W
Monate: 1M, 3M, 6M -1M -3M -6M +1M +3M +6M
Jahre:    1J, 3J, 5J, 10J -1J -3J -5J -10J +1J +3J +5J +10J
Nutze für die Darstellung ... ?
Originaldaten oder Mittelwerte auf ...
Stundenbasis Tagesbasis Wochenbasis
Monatsbasis Jahresbasis      Datenbasis: Original-Daten
Darstellen als:
Statistik (Auto) Statistik J:M      Darstellung:

Der gewünschte Datumsbereich war nicht gültig/verfügbar und wurde korrigiert....
Das angegebene Enddatum (07.09.2023 23:59:59) liegt in der Zukunft.
Das angegebene Startdatum (25.08.2023 00:00:00) liegt in der Zukunft.


Zur Graphik,    zurück zur Übersicht aller Sensoren.
 
Tabellarische Datenbersicht: ?
 
Sensor: Nr:Datum:Temp:Feuchte:Taupunkt:
Aussen-T/F 1 29-11-2021 01:00:00 2.5 C 96 % 1.93 C
2 29-11-2021 01:05:00 2.3 C 95 % 1.58 C
3 29-11-2021 01:10:00 2.2 C 95 % 1.48 C
4 29-11-2021 01:15:00 1.9 C 95 % 1.19 C
5 29-11-2021 01:20:00 1.8 C 95 % 1.09 C
6 29-11-2021 01:25:00 1.8 C 95 % 1.09 C
7 29-11-2021 01:30:00 1.8 C 95 % 1.09 C
8 29-11-2021 01:35:00 1.8 C 96 % 1.23 C
9 29-11-2021 01:40:00 1.8 C 96 % 1.23 C
10 29-11-2021 01:45:00 1.8 C 96 % 1.23 C
11 29-11-2021 01:50:00 1.9 C 96 % 1.33 C
12 29-11-2021 01:55:00 1.9 C 96 % 1.33 C
13 29-11-2021 02:00:00 1.9 C 96 % 1.33 C
14 29-11-2021 02:05:00 1.9 C 96 % 1.33 C
15 29-11-2021 02:10:00 1.9 C 96 % 1.33 C
16 29-11-2021 02:15:00 1.9 C 96 % 1.33 C
17 29-11-2021 02:20:00 2 C 96 % 1.43 C
18 29-11-2021 02:25:00 2 C 96 % 1.43 C
19 29-11-2021 02:30:00 1.9 C 96 % 1.33 C
20 29-11-2021 02:35:00 1.9 C 96 % 1.33 C
21 29-11-2021 02:40:00 1.8 C 96 % 1.23 C
22 29-11-2021 02:45:00 1.7 C 96 % 1.13 C
23 29-11-2021 02:50:00 1.7 C 96 % 1.13 C
24 29-11-2021 02:55:00 1.7 C 96 % 1.13 C
25 29-11-2021 03:00:00 1.7 C 96 % 1.13 C
Sensor: Nr:Datum:Temp:Feuchte:Taupunkt:
Aussen-T/F 26 29-11-2021 03:05:00 1.8 C 96 % 1.23 C
27 29-11-2021 03:10:00 1.8 C 96 % 1.23 C
28 29-11-2021 03:15:00 1.8 C 96 % 1.23 C
29 29-11-2021 03:20:00 1.8 C 96 % 1.23 C
30 29-11-2021 03:25:00 1.8 C 96 % 1.23 C
31 29-11-2021 03:30:00 1.7 C 95 % 0.99 C
32 29-11-2021 03:35:00 1.6 C 95 % 0.89 C
33 29-11-2021 03:40:00 1.4 C 95 % 0.69 C
34 29-11-2021 03:45:00 1.2 C 95 % 0.49 C
35 29-11-2021 03:50:00 1 C 95 % 0.29 C
36 29-11-2021 03:55:00 0.9 C 95 % 0.19 C
37 29-11-2021 04:00:00 0.8 C 95 % 0.09 C
38 29-11-2021 04:05:00 0.8 C 95 % 0.09 C
39 29-11-2021 04:10:00 0.8 C 95 % 0.09 C
40 29-11-2021 04:15:00 0.8 C 95 % 0.09 C
41 29-11-2021 04:20:00 0.7 C 95 % -0.01 C
42 29-11-2021 04:25:00 0.6 C 95 % -0.11 C
43 29-11-2021 04:30:00 0.6 C 95 % -0.11 C
44 29-11-2021 04:35:00 0.6 C 96 % 0.04 C
45 29-11-2021 04:40:00 0.6 C 96 % 0.04 C
46 29-11-2021 04:45:00 0.6 C 96 % 0.04 C
47 29-11-2021 04:50:00 0.6 C 96 % 0.04 C
48 29-11-2021 04:55:00 0.6 C 96 % 0.04 C
49 29-11-2021 05:00:00 0.6 C 95 % -0.11 C
50 29-11-2021 05:05:00 0.4 C 95 % -0.31 C
Sensor: Nr:Datum:Temp:Feuchte:Taupunkt:
Aussen-T/F 51 29-11-2021 05:10:00 0.4 C 95 % -0.31 C
52 29-11-2021 05:15:00 0.3 C 96 % -0.26 C
53 29-11-2021 05:20:00 0.3 C 96 % -0.26 C
54 29-11-2021 05:25:00 0.3 C 96 % -0.26 C
55 29-11-2021 05:30:00 0.4 C 96 % -0.16 C
56 29-11-2021 05:35:00 0.6 C 96 % 0.04 C
57 29-11-2021 05:40:00 0.7 C 96 % 0.14 C
58 29-11-2021 05:45:00 0.7 C 96 % 0.14 C
59 29-11-2021 05:50:00 0.8 C 96 % 0.24 C
60 29-11-2021 05:55:00 0.8 C 96 % 0.24 C
61 29-11-2021 06:00:00 0.8 C 96 % 0.24 C
62 29-11-2021 06:05:00 0.9 C 96 % 0.34 C
63 29-11-2021 06:10:00 0.9 C 96 % 0.34 C
64 29-11-2021 06:15:00 0.9 C 96 % 0.34 C
65 29-11-2021 06:20:00 0.9 C 96 % 0.34 C
66 29-11-2021 06:25:00 0.9 C 96 % 0.34 C
67 29-11-2021 06:30:00 0.9 C 96 % 0.34 C
68 29-11-2021 06:35:00 0.9 C 96 % 0.34 C
69 29-11-2021 06:40:00 0.8 C 96 % 0.24 C
70 29-11-2021 06:45:00 0.7 C 96 % 0.14 C
71 29-11-2021 06:50:00 0.6 C 96 % 0.04 C
72 29-11-2021 06:55:00 0.4 C 96 % -0.16 C
73 29-11-2021 07:00:00 0.4 C 96 % -0.16 C
74 29-11-2021 07:05:00 0.4 C 96 % -0.16 C
75 29-11-2021 07:10:00 0.4 C 96 % -0.16 C
Sensor: Nr:Datum:Temp:Feuchte:Taupunkt:
Aussen-T/F 76 29-11-2021 07:15:00 0.4 C 96 % -0.16 C
77 29-11-2021 07:20:00 0.5 C 96 % -0.06 C
78 29-11-2021 07:25:00 0.6 C 96 % 0.04 C
79 29-11-2021 07:30:00 0.6 C 96 % 0.04 C
80 29-11-2021 07:35:00 0.6 C 96 % 0.04 C
81 29-11-2021 07:40:00 0.6 C 96 % 0.04 C
82 29-11-2021 07:45:00 0.5 C 96 % -0.06 C
83 29-11-2021 07:50:00 0.4 C 96 % -0.16 C
84 29-11-2021 07:55:00 0.4 C 96 % -0.16 C
85 29-11-2021 08:00:00 0.4 C 96 % -0.16 C
86 29-11-2021 08:05:00 0.3 C 96 % -0.26 C
87 29-11-2021 08:10:00 0.3 C 96 % -0.26 C
88 29-11-2021 08:15:00 0.4 C 96 % -0.16 C
89 29-11-2021 08:20:00 0.5 C 96 % -0.06 C
90 29-11-2021 08:25:00 0.6 C 96 % 0.04 C
91 29-11-2021 08:30:00 0.7 C 96 % 0.14 C
92 29-11-2021 08:35:00 0.7 C 96 % 0.14 C
93 29-11-2021 08:40:00 0.8 C 96 % 0.24 C
94 29-11-2021 08:45:00 0.8 C 96 % 0.24 C
95 29-11-2021 08:50:00 0.9 C 96 % 0.34 C
96 29-11-2021 08:55:00 1 C 96 % 0.44 C
97 29-11-2021 09:00:00 1.1 C 96 % 0.54 C
98 29-11-2021 09:05:00 1.1 C 96 % 0.54 C
99 29-11-2021 09:10:00 1.1 C 96 % 0.54 C
100 29-11-2021 09:15:00 1.2 C 96 % 0.63 C
Sensor: Nr:Datum:Temp:Feuchte:Taupunkt:
Aussen-T/F 101 29-11-2021 09:20:00 1.3 C 96 % 0.73 C
102 29-11-2021 09:25:00 1.3 C 96 % 0.73 C
103 29-11-2021 09:30:00 1.4 C 96 % 0.83 C
104 29-11-2021 09:35:00 1.5 C 95 % 0.79 C
105 29-11-2021 09:40:00 1.6 C 95 % 0.89 C
106 29-11-2021 09:45:00 1.6 C 95 % 0.89 C
107 29-11-2021 09:50:00 1.7 C 95 % 0.99 C
108 29-11-2021 09:55:00 1.7 C 95 % 0.99 C
109 29-11-2021 10:00:00 1.7 C 95 % 0.99 C
110 29-11-2021 10:05:00 1.8 C 94 % 0.94 C
111 29-11-2021 10:10:00 1.8 C 94 % 0.94 C
112 29-11-2021 10:15:00 1.9 C 94 % 1.04 C
113 29-11-2021 10:20:00 2 C 94 % 1.14 C
114 29-11-2021 10:25:00 2.1 C 94 % 1.24 C
115 29-11-2021 10:30:00 2.2 C 93 % 1.19 C
116 29-11-2021 10:35:00 2.2 C 93 % 1.19 C
117 29-11-2021 10:40:00 2.3 C 93 % 1.29 C
118 29-11-2021 10:45:00 2.3 C 92 % 1.14 C
119 29-11-2021 10:50:00 2.4 C 92 % 1.24 C
120 29-11-2021 10:55:00 2.5 C 92 % 1.34 C
121 29-11-2021 11:00:00 2.6 C 92 % 1.43 C
122 29-11-2021 11:05:00 2.6 C 91 % 1.28 C
123 29-11-2021 11:10:00 2.7 C 92 % 1.53 C
124 29-11-2021 11:15:00 2.8 C 91 % 1.48 C
125 29-11-2021 11:20:00 2.9 C 91 % 1.58 C
Sensor: Nr:Datum:Temp:Feuchte:Taupunkt:
Aussen-T/F 126 29-11-2021 11:25:00 3.1 C 91 % 1.78 C
127 29-11-2021 11:30:00 3.2 C 90 % 1.72 C
128 29-11-2021 11:35:00 3.3 C 90 % 1.82 C
129 29-11-2021 11:40:00 3.4 C 89 % 1.76 C
130 29-11-2021 11:45:00 3.5 C 89 % 1.86 C
131 29-11-2021 11:50:00 3.7 C 89 % 2.06 C
132 29-11-2021 11:55:00 3.7 C 88 % 1.9 C
133 29-11-2021 12:00:00 3.8 C 88 % 2 C
134 29-11-2021 12:05:00 4 C 87 % 2.04 C
135 29-11-2021 12:10:00 4.2 C 87 % 2.23 C
136 29-11-2021 12:15:00 4.2 C 86 % 2.07 C
137 29-11-2021 12:20:00 4.3 C 86 % 2.17 C
138 29-11-2021 12:25:00 4.3 C 86 % 2.17 C
139 29-11-2021 12:30:00 4.3 C 85 % 2.01 C
140 29-11-2021 12:35:00 4.3 C 85 % 2.01 C
141 29-11-2021 12:40:00 4.3 C 86 % 2.17 C
142 29-11-2021 12:45:00 4.3 C 85 % 2.01 C
143 29-11-2021 12:50:00 4.3 C 86 % 2.17 C
144 29-11-2021 12:55:00 4.1 C 87 % 2.14 C
145 29-11-2021 13:00:00 3.8 C 88 % 2 C
146 29-11-2021 13:05:00 3.6 C 90 % 2.12 C
147 29-11-2021 13:10:00 3.5 C 91 % 2.17 C
148 29-11-2021 13:15:00 3.5 C 91 % 2.17 C
149 29-11-2021 13:20:00 3.4 C 92 % 2.23 C
150 29-11-2021 13:25:00 3.4 C 92 % 2.23 C
Sensor: Nr:Datum:Temp:Feuchte:Taupunkt:
Aussen-T/F 151 29-11-2021 13:30:00 3.4 C 92 % 2.23 C
152 29-11-2021 13:35:00 3.4 C 92 % 2.23 C
153 29-11-2021 13:40:00 3.4 C 93 % 2.38 C
154 29-11-2021 13:45:00 3.3 C 93 % 2.28 C
155 29-11-2021 13:50:00 3.3 C 93 % 2.28 C
156 29-11-2021 13:55:00 3.3 C 93 % 2.28 C
157 29-11-2021 14:00:00 3.3 C 93 % 2.28 C
158 29-11-2021 14:05:00 3.3 C 93 % 2.28 C
159 29-11-2021 14:10:00 3.3 C 93 % 2.28 C
160 29-11-2021 14:15:00 3.3 C 94 % 2.43 C
161 29-11-2021 14:20:00 3.3 C 94 % 2.43 C
162 29-11-2021 14:25:00 3.3 C 94 % 2.43 C
163 29-11-2021 14:30:00 3.3 C 94 % 2.43 C
164 29-11-2021 14:35:00 3.3 C 94 % 2.43 C
165 29-11-2021 14:40:00 3.3 C 94 % 2.43 C
166 29-11-2021 14:45:00 3.3 C 94 % 2.43 C
167 29-11-2021 14:50:00 3.3 C 94 % 2.43 C
168 29-11-2021 14:55:00 3.4 C 94 % 2.53 C
169 29-11-2021 15:00:00 3.4 C 94 % 2.53 C
170 29-11-2021 15:05:00 3.4 C 94 % 2.53 C
171 29-11-2021 15:10:00 3.4 C 94 % 2.53 C
172 29-11-2021 15:15:00 3.4 C 94 % 2.53 C
173 29-11-2021 15:20:00 3.4 C 94 % 2.53 C
174 29-11-2021 15:25:00 3.4 C 94 % 2.53 C
175 29-11-2021 15:30:00 3.4 C 94 % 2.53 C
Sensor: Nr:Datum:Temp:Feuchte:Taupunkt:
Aussen-T/F 176 29-11-2021 15:35:00 3.4 C 94 % 2.53 C

Legende:
   Min
   Max


Maximal/Minimal-Werte vom 29.11.2021 - 29.11.2021

Sensor Min Max Avg
Temp
(Aussen-T/F)
0.3 °C
29-11-2021  05:15:00
4.3 °C
29-11-2021  12:20:00
1.93 °C
Feuchte
(Aussen-T/F)
85 %
29-11-2021  12:30:00
96 %
29-11-2021  01:00:00
94.06 %
Taupunkt
(Aussen-T/F)
-0.31 C
29-11-2021  05:05:00
2.53 C
29-11-2021  14:55:00
1.06 C

Die Daten stammen von einer Davis Vantage Pro 2 Wetter-Station und werden unter Linux mit der Software wview2wettercgi und aufbereitet. Alle Angaben erfolgen ohne Gewähr für ihre Vollständigkeit oder Richtigkeit.
Kontakt: Rainer Krienke krienke@uni-koblenz.de . Meine Webseiten an der Uni Koblenz oder privat.
Version: $Revision: 0.78 $